Weather in Ronne

Denmark     55°06′00″N   14°42′08″E
В апреле 2022 года жителям России запретили посещать сайт meteo.paraplan.net по решению Генеральной прокуратуры. Аудитория сайта уменьшилась в 10 раз. Владельцы сайта не видят смысла в поддержке погодного сервера в таких условиях. Сайт будет закрыт в октябре.
temp.,
°C
wind,
m/s
gust,
m/s
humid.,
%
clouds,
%
prec.,
mm/h
press.,
hPa
HPBL,
m
6 october, thu
thu623:00+15sw1017770 0.0 1012385
02:00+15sw111881100 0.0 1011548
05:00+16wsw152085100 0.1 1012784
08:00+14wsw1418818 0.3 10151019
11:00+14w1418810 0.4 10191328
14:00+14w1317770 0.4 10221285
17:00+15wsw1216770 0.0 10231064
20:00+15wsw1215780 0.0 1024984
7 october, fri
fri723:00+14wsw1215785 0.0 1025985
02:00+14wsw1013805 0.0 1025870
05:00+13sw1012765 0.0 1024630
08:00+13sw1113765 0.0 1023627
11:00+13sw1114731 0.0 1022666
14:00+14ssw1012705 0.0 1020726
17:00+14ssw8137040 0.0 1017516
20:00+15sw9146922 0.0 1016464
8 october, sat
sat823:00+15sw914727 0.0 1014484
02:00+14sw10147699 0.0 1012683
05:00+13wsw1114795 0.0 1011829
08:00+13wsw91183100 0.1 1011762
11:00+13wsw121382100 0.6 1012964
14:00+13w91176100 1.1 1013942
17:00+13w1012735 0.2 10141144
20:00+14wnw911720 0.3 10151231
9 october, sun
sun923:00+13wnw1112711 0.2 10181172
02:00+13wnw1011714 0.2 10191220
05:00+13wnw1011710 0.0 10201143
08:00+12wnw78735 0.0 10211025
11:00+13w67729 0.0 1022895
14:00+13wsw787456 0.1 1022939
17:00+13ssw677436 0.0 1021560
20:00+14s7972100 0.0 1020717
10 october, mon
mon1023:00+14s91175100 0.0 1019854
02:00+13s111573100 0.0 1016711
05:00+13s121674100 0.0 1013555
08:00+13ssw131674100 0.0 1011530
11:00+13ssw111575100 0.0 1011450
14:00+14sw101478100 0.0 1012503
17:00+14nw9118496 0.2 1014807
20:00+14wnw812700 0.2 10181116